Weather History for Apalachicola, FL

Change the Weather History Date:

Thursday, June 27, 2013

  Actual Average Record
Temperature  
Mean Temperature 83 °F 82 °F  
Max Temperature 92 °F 90 °F 100 °F (1998)
Min Temperature 73 °F 73 °F 68 °F (1938)
Degree Days  
Heating Degree Days 0    
Month to date heating degree days  
Since 1 June heating degree days  
Since 1 July heating degree days  
Cooling Degree Days 18    
Month to date cooling degree days  
Year to date cooling degree days  
Since 1 June cooling degree days  
Growing Degree Days 33 (Base 50)    
Moisture  
Dew Point 73 °F    
Average Humidity 68    
Maximum Humidity 87    
Minimum Humidity 41    
Precipitation  
Precipitation 0.00 in 0.20 in 1.59 in (1943)
Month to date precipitation 2.70 4.65  
Year to date precipitation 21.98 24.03  
Sea Level Pressure  
Sea Level Pressure 29.98 in    
Wind  
Wind Speed 5 mph (West)    
Max Wind Speed 15 mph    
Max Gust Speed 20 mph    
Visibility 10 miles    
Events      
T = Trace of Precipitation, MM = Missing Value Source: NWS Daily Summary

Daily Weather History Graph

Daily Weather History Graph

Search for Another Location

Airport:

Trip Planner

Search our weather history database for the weather conditions in past years. The results will help you decide how hot, cold, wet, or windy it might be!

Date:

Astronomy

Jun. 27, 2013 Rise Set
Actual Time 6:41 AM EDT 8:44 PM EDT
Civil Twilight 6:14 AM EDT 9:11 PM EDT
Nautical Twilight 5:41 AM EDT 9:44 PM EDT
Astronomical Twilight 5:05 AM EDT 10:20 PM EDT
Moon No Moon Rise 11:19 AM EDT (6/27)
Length of Visible Light 14h 57m
Length of Day
14h 02m
Waning Gibbous, 76% of the Moon is Illuminated
Jun 27
Waning Gibbous
Jun 30
Last Quarter
Jul 8
New
Jul 15
First Quarter
Jul 22
Full

Hourly Weather History & Observations

Time (EDT) Temp. Heat Index Dew Point Humidity Pressure Visibility Wind Dir Wind Speed Gust Speed Precip Events Conditions
12:53 AM 82.9 °F 88.8 °F 73.0 °F 72% 30.03 in 10.0 mi Calm Calm - N/A   Clear
1:53 AM 78.1 °F - 72.0 °F 81% 30.00 in 10.0 mi Calm Calm - N/A   Clear
2:53 AM 75.9 °F - 72.0 °F 87% 30.00 in 10.0 mi NW 4.6 mph - N/A   Clear
3:53 AM 77.0 °F - 72.0 °F 84% 30.00 in 10.0 mi Calm Calm - N/A   Clear
4:53 AM 77.0 °F - 72.0 °F 84% 30.01 in 10.0 mi Calm Calm - N/A   Clear
5:53 AM 75.9 °F - 71.1 °F 85% 30.01 in 10.0 mi Calm Calm - N/A   Clear
6:53 AM 75.9 °F - 71.1 °F 85% 30.01 in 10.0 mi Calm Calm - N/A   Clear
7:53 AM 81.0 °F 86.2 °F 73.9 °F 79% 30.03 in 10.0 mi NNW 3.5 mph - N/A   Clear
8:53 AM 86.0 °F 93.8 °F 73.9 °F 67% 30.04 in 10.0 mi NW 5.8 mph - N/A   Clear
9:53 AM 87.1 °F 95.4 °F 73.9 °F 65% 30.04 in 10.0 mi NNW 5.8 mph - N/A   Scattered Clouds
10:53 AM 86.0 °F 93.0 °F 73.0 °F 65% 30.02 in 10.0 mi SW 5.8 mph - N/A   Mostly Cloudy
11:53 AM 89.1 °F 97.0 °F 73.0 °F 59% 30.02 in 10.0 mi WSW 8.1 mph - N/A   Scattered Clouds
12:53 PM 91.0 °F 99.3 °F 73.0 °F 55% 30.01 in 10.0 mi SW 11.5 mph - N/A   Partly Cloudy
1:53 PM 91.0 °F 96.6 °F 70.0 °F 50% 30.00 in 10.0 mi WSW 12.7 mph - N/A   Clear
2:53 PM 91.0 °F 97.6 °F 71.1 °F 52% 29.98 in 10.0 mi WSW 15.0 mph - N/A   Clear
3:53 PM 91.9 °F 99.5 °F 72.0 °F 52% 29.97 in 10.0 mi WSW 12.7 mph 19.6 mph N/A   Clear
4:53 PM 90.0 °F 96.4 °F 71.1 °F 54% 29.96 in 10.0 mi WSW 11.5 mph - N/A   Clear
5:53 PM 89.1 °F 97.0 °F 73.0 °F 59% 29.94 in 10.0 mi WSW 12.7 mph - N/A   Clear
6:53 PM 87.1 °F 94.5 °F 73.0 °F 63% 29.93 in 10.0 mi West 10.4 mph - N/A   Clear
7:53 PM 86.0 °F 93.8 °F 73.9 °F 67% 29.94 in 10.0 mi West 10.4 mph - N/A   Clear
8:53 PM 84.9 °F 92.1 °F 73.9 °F 69% 29.95 in 10.0 mi West 8.1 mph - N/A   Scattered Clouds
9:07 PM 84.2 °F 92.3 °F 75.2 °F 74% 29.94 in 10.0 mi WSW 8.1 mph - N/A   Mostly Cloudy
9:18 PM 84.2 °F 92.3 °F 75.2 °F 74% 29.94 in 10.0 mi West 5.8 mph - N/A   Scattered Clouds
9:35 PM 84.2 °F 90.9 °F 73.4 °F 70% 29.95 in 10.0 mi West 5.8 mph - N/A   Mostly Cloudy
9:49 PM 84.2 °F 90.9 °F 73.4 °F 70% 29.94 in 10.0 mi WSW 9.2 mph - N/A   Scattered Clouds
9:53 PM 84.9 °F 92.1 °F 73.9 °F 69% 29.94 in 10.0 mi WSW 8.1 mph - N/A   Scattered Clouds
10:53 PM 84.9 °F 92.1 °F 73.9 °F 69% 29.95 in 10.0 mi West 9.2 mph - N/A   Clear
11:53 PM 84.9 °F 93.3 °F 75.0 °F 72% 29.95 in 10.0 mi SW 8.1 mph - N/A   Partly Cloudy